Park Rapids, MN

11:51 PM CDT on May 22, 2017 (GMT -0500)
Park Rapids Municipal

Weather History for KPKD - August, 2013

Change the Weather History Date:

Monday, August 26, 2013

  Actual Average Record
Temperature  
Mean Temperature 80 °F -  
Max Temperature 91 °F 78 °F 94 °F (1991)
Min Temperature 68 °F 55 °F 38 °F (1992)
Cooling Degree Days 14    
Growing Degree Days 30 (Base 50)    
Moisture  
Dew Point 70 °F    
Average Humidity 80    
Maximum Humidity 100    
Minimum Humidity 52    
Precipitation  
Precipitation 0.31 in - - ()
Sea Level Pressure  
Sea Level Pressure 29.90 in    
Wind  
Wind Speed 3 mph (East)    
Max Wind Speed 14 mph    
Max Gust Speed 28 mph    
Visibility 8 miles    
Events Rain    
Averages and records for this station are not official NWS values.
T = Trace of Precipitation, MM = Missing Value Source: NWS Daily Summary

Daily Weather History Graph

Daily Weather History Graph

Search for Another Location

Airport or City:

Trip Planner

Search our weather history database for the weather conditions in past years. The results will help you decide how hot, cold, wet, or windy it might be!

Date:

Astronomy

Aug. 26, 2013 Rise Set
Actual Time 6:32 AM CDT 8:10 PM CDT
Civil Twilight 6:00 AM CDT 8:42 PM CDT
Nautical Twilight 5:21 AM CDT 9:21 PM CDT
Astronomical Twilight 4:38 AM CDT 10:03 PM CDT
Moon 10:54 PM CDT (8/26) 1:01 PM CDT (8/26)
Length of Visible Light 14h 42m
Length of Day
13h 38m
Waning Gibbous, 66% of the Moon is Illuminated
Aug 26
Waning Gibbous
Aug 28
Last Quarter
Sep 5
New
Sep 12
First Quarter
Sep 19
Full

Hourly Weather History & Observations

Time (CDT) Temp. Heat Index Dew Point Humidity Pressure Visibility Wind Dir Wind Speed Gust Speed Precip Events Conditions
12:53 AM 75.9 °F - 71.1 °F 85% 29.92 in 10.0 mi Calm Calm - N/A   Clear
1:53 AM 72.0 °F - 69.1 °F 91% 29.93 in 10.0 mi Calm Calm - N/A   Clear
2:53 AM 73.9 °F - 72.0 °F 93% 29.92 in 10.0 mi Calm Calm - N/A   Clear
3:53 AM 73.0 °F - 71.1 °F 93% 29.92 in 10.0 mi Calm Calm - N/A   Clear
4:53 AM 73.0 °F - 70.0 °F 90% 29.94 in 10.0 mi Calm Calm - N/A   Clear
5:53 AM 73.0 °F - 70.0 °F 90% 29.93 in 10.0 mi Calm Calm - N/A   Clear
6:53 AM 68.0 °F - 68.0 °F 100% 29.95 in 1.8 mi Calm Calm - N/A   Clear
7:01 AM 69.8 °F - 68.0 °F 94% 29.97 in 3.0 mi Calm Calm - N/A   Clear
7:53 AM 73.0 °F - 70.0 °F 90% 29.96 in 7.0 mi Calm Calm - N/A   Clear
8:53 AM 78.1 °F - 69.1 °F 74% 29.95 in 10.0 mi East 5.8 mph - N/A   Clear
9:53 AM 82.0 °F 86.3 °F 71.1 °F 69% 29.94 in 10.0 mi East 5.8 mph - N/A   Clear
10:53 AM 86.0 °F 92.2 °F 72.0 °F 63% 29.93 in 10.0 mi SE 8.1 mph - N/A   Clear
11:53 AM 88.0 °F 93.8 °F 71.1 °F 57% 29.92 in 10.0 mi SE 10.4 mph - N/A   Unknown
12:53 PM 90.0 °F 96.9 °F 72.0 °F 55% 29.90 in 10.0 mi East 8.1 mph - N/A   Clear
1:53 PM 91.9 °F 99.5 °F 72.0 °F 52% 29.89 in 10.0 mi SSE 13.8 mph 20.7 mph N/A   Scattered Clouds
2:53 PM 89.1 °F 96.0 °F 72.0 °F 57% 29.88 in 10.0 mi SE 5.8 mph - 0.00 in Rain Light Rain
3:53 PM 84.0 °F 93.7 °F 77.0 °F 79% 29.90 in 6.0 mi NE 4.6 mph - 0.08 in Rain Light Rain
4:38 PM 80.6 °F 86.2 °F 75.2 °F 84% 29.90 in 2.5 mi NNW 10.4 mph - 0.11 in Rain Rain
4:49 PM 75.2 °F - 66.2 °F 73% 29.90 in 1.0 mi NE 10.4 mph 27.6 mph 0.21 in Rain Rain
4:53 PM 75.0 °F - 68.0 °F 79% 29.86 in 2.0 mi NE 13.8 mph 26.5 mph 0.22 in Rain Rain
5:00 PM 75.2 °F - 68.0 °F 78% 29.88 in 7.0 mi North 11.5 mph 20.7 mph 0.00 in Rain Light Rain
5:53 PM 77.0 °F - 70.0 °F 79% 29.86 in 10.0 mi ESE 8.1 mph - 0.00 in   Mostly Cloudy
6:53 PM 75.9 °F - 69.1 °F 79% 29.85 in 10.0 mi ENE 4.6 mph - N/A   Overcast
7:53 PM 75.0 °F - 70.0 °F 84% 29.88 in 10.0 mi Calm Calm - 0.00 in   Mostly Cloudy
8:53 PM 73.9 °F - 70.0 °F 87% 29.87 in 10.0 mi Calm Calm - 0.01 in Rain Light Rain
9:53 PM 73.0 °F - 70.0 °F 90% 29.86 in 10.0 mi Calm Calm - 0.00 in   Partly Cloudy
10:53 PM 73.0 °F - 70.0 °F 90% 29.86 in 10.0 mi Calm Calm - N/A   Scattered Clouds
11:53 PM 73.0 °F - 69.1 °F 87% 29.86 in 10.0 mi North 9.2 mph - N/A   Mostly Cloudy